Las Cruces, NM

3:23 AM MDT on September 26, 2017 (GMT -0600)
Las Cruces International

Weather History for KLRU - April, 2013

Change the Weather History Date:

Tuesday, April 9, 2013

  Actual Average Record
Temperature  
Mean Temperature 54 °F -  
Max Temperature 63 °F 71 °F 84 °F (2012)
Min Temperature 46 °F 43 °F 28 °F (1997)
Degree Days  
Heating Degree Days 10    
Growing Degree Days 4 (Base 50)    
Moisture  
Dew Point 26 °F    
Average Humidity 35    
Maximum Humidity 66    
Minimum Humidity 17    
Precipitation  
Precipitation 0.00 in - - ()
Sea Level Pressure  
Sea Level Pressure 29.71 in    
Wind  
Wind Speed 22 mph (West)    
Max Wind Speed 38 mph    
Max Gust Speed 51 mph    
Visibility 7 miles    
Events      
Averages and records for this station are not official NWS values.
T = Trace of Precipitation, MM = Missing Value Source: NWS Daily Summary

Daily Weather History Graph

Daily Weather History Graph

Search for Another Location

Airport or City:

Trip Planner

Search our weather history database for the weather conditions in past years. The results will help you decide how hot, cold, wet, or windy it might be!

Date:

Astronomy

Apr. 09, 2013 Rise Set
Actual Time 6:45 AM MDT 7:33 PM MDT
Civil Twilight 6:20 AM MDT 7:58 PM MDT
Nautical Twilight 5:51 AM MDT 8:27 PM MDT
Astronomical Twilight 5:21 AM MDT 8:57 PM MDT
Moon 6:08 AM MDT (4/9) 7:11 PM MDT (4/9)
Length of Visible Light 13h 37m
Length of Day
12h 47m
Waning Crescent, 0% of the Moon is Illuminated
Apr 9
Waning Crescent
Apr 10
New
Apr 18
First Quarter
Apr 25
Full
May 2
Last Quarter

Hourly Weather History & Observations

Time (MDT) Temp. Dew Point Humidity Pressure Visibility Wind Dir Wind Speed Gust Speed Precip Events Conditions
12:15 AM 63.3 °F 32.4 °F 31% 29.57 in 7.0 mi WSW 18.4 mph 27.6 mph N/A   Clear
12:35 AM 62.8 °F 32.0 °F 32% 29.57 in 7.0 mi WSW 17.3 mph 25.3 mph N/A   Mostly Cloudy
12:55 AM 62.4 °F 30.0 °F 30% 29.58 in 4.0 mi WSW 23.0 mph 28.8 mph N/A   Haze
1:15 AM 61.9 °F 28.9 °F 29% 29.56 in 3.0 mi WSW 21.9 mph 31.1 mph N/A   Haze
1:35 AM 61.9 °F 28.8 °F 29% 29.56 in 2.0 mi WSW 18.4 mph 28.8 mph N/A   Haze
1:55 AM 61.3 °F 29.5 °F 30% 29.57 in 2.0 mi WSW 20.7 mph 25.3 mph N/A   Haze
2:15 AM 60.8 °F 30.2 °F 31% 29.56 in 2.5 mi WSW 23.0 mph 26.5 mph N/A   Haze
2:35 AM 60.8 °F 30.0 °F 31% 29.56 in 3.0 mi WSW 19.6 mph 26.5 mph N/A   Haze
2:55 AM 60.4 °F 28.2 °F 29% 29.56 in 2.5 mi WSW 25.3 mph 31.1 mph N/A   Haze
3:15 AM 60.4 °F 27.9 °F 29% 29.55 in 1.8 mi SW 31.1 mph 38.0 mph N/A   Haze
3:35 AM 60.3 °F 27.5 °F 29% 29.55 in 1.2 mi SW 34.5 mph 50.6 mph N/A   Haze
3:55 AM 59.9 °F 27.9 °F 30% 29.56 in 2.0 mi SW 29.9 mph 42.6 mph N/A   Haze
4:15 AM 59.4 °F 27.5 °F 30% 29.57 in 2.0 mi SW 28.8 mph 42.6 mph N/A   Haze
4:35 AM 57.0 °F 28.8 °F 34% 29.59 in 7.0 mi West 23.0 mph 31.1 mph N/A   Overcast
4:55 AM 55.4 °F 29.1 °F 37% 29.60 in 5.0 mi West 24.2 mph 28.8 mph N/A   Haze
5:15 AM 54.9 °F 30.2 °F 39% 29.60 in 3.0 mi WSW 27.6 mph 33.4 mph N/A   Haze
5:35 AM 54.0 °F 31.1 °F 42% 29.63 in 2.5 mi West 38.0 mph 42.6 mph N/A   Haze
5:55 AM 47.8 °F 35.6 °F 63% 29.66 in 5.0 mi West 26.5 mph 39.1 mph N/A   Haze
6:15 AM 46.9 °F 35.6 °F 65% 29.66 in 10.0 mi West 27.6 mph 35.7 mph N/A   Mostly Cloudy
6:35 AM 46.9 °F 34.7 °F 62% 29.66 in 7.0 mi West 25.3 mph 36.8 mph N/A   Mostly Cloudy
6:55 AM 48.2 °F 34.2 °F 58% 29.68 in 5.0 mi WSW 23.0 mph 38.0 mph N/A   Haze
7:15 AM 48.6 °F 33.6 °F 56% 29.69 in 5.0 mi West 17.3 mph 31.1 mph N/A   Haze
7:35 AM 47.3 °F 36.5 °F 66% 29.70 in 10.0 mi West 23.0 mph 27.6 mph N/A   Overcast
7:55 AM 47.5 °F 36.5 °F 66% 29.71 in 10.0 mi West 17.3 mph 21.9 mph N/A   Overcast
8:15 AM 48.2 °F 35.2 °F 61% 29.71 in 10.0 mi West 13.8 mph - N/A   Overcast
8:35 AM 47.8 °F 33.8 °F 58% 29.72 in 10.0 mi West 13.8 mph - N/A   Overcast
8:55 AM 48.2 °F 33.8 °F 58% 29.72 in 10.0 mi WSW 17.3 mph 23.0 mph N/A   Overcast
9:15 AM 48.9 °F 33.1 °F 54% 29.73 in 10.0 mi WSW 20.7 mph - N/A   Overcast
9:35 AM 50.9 °F 32.9 °F 50% 29.73 in 10.0 mi WSW 19.6 mph 28.8 mph N/A   Overcast
9:55 AM 50.0 °F 32.9 °F 52% 29.75 in 10.0 mi WSW 20.7 mph 24.2 mph N/A   Overcast
10:15 AM 50.4 °F 32.0 °F 49% 29.74 in 7.0 mi WSW 21.9 mph - N/A   Overcast
10:35 AM 53.4 °F 32.0 °F 44% 29.74 in 10.0 mi West 16.1 mph 27.6 mph N/A   Mostly Cloudy
10:55 AM 54.1 °F 30.4 °F 40% 29.73 in 7.0 mi West 20.7 mph 31.1 mph N/A   Mostly Cloudy
11:15 AM 55.9 °F 26.8 °F 33% 29.73 in 7.0 mi WSW 24.2 mph 33.4 mph N/A   Scattered Clouds
11:35 AM 56.3 °F 26.1 °F 31% 29.74 in 5.0 mi West 28.8 mph 34.5 mph N/A   Haze
11:55 AM 56.5 °F 25.0 °F 30% 29.74 in 7.0 mi WSW 24.2 mph 35.7 mph N/A   Mostly Cloudy
12:15 PM 59.0 °F 23.9 °F 26% 29.73 in 5.0 mi West 24.2 mph 36.8 mph N/A   Haze
12:35 PM 59.0 °F 19.2 °F 21% 29.73 in 3.0 mi West 32.2 mph 41.4 mph N/A   Haze
12:55 PM 59.7 °F 21.9 °F 23% 29.72 in 4.0 mi West 26.5 mph 43.7 mph N/A   Haze
1:15 PM 60.3 °F 21.9 °F 23% 29.72 in 3.0 mi West 21.9 mph 49.5 mph N/A   Haze
1:35 PM 60.1 °F 18.7 °F 20% 29.72 in 4.0 mi West 28.8 mph 42.6 mph N/A   Haze
1:55 PM 60.4 °F 19.9 °F 21% 29.71 in 7.0 mi WNW 27.6 mph 40.3 mph N/A   Scattered Clouds
2:15 PM 61.7 °F 19.8 °F 20% 29.71 in 7.0 mi West 24.2 mph 44.9 mph N/A   Scattered Clouds
2:35 PM 61.3 °F 17.1 °F 18% 29.71 in 7.0 mi West 29.9 mph 41.4 mph N/A   Scattered Clouds
2:55 PM 61.7 °F 17.2 °F 18% 29.72 in 7.0 mi West 33.4 mph 41.4 mph N/A   Clear
3:15 PM 61.7 °F 16.5 °F 17% 29.72 in 7.0 mi West 29.9 mph 41.4 mph N/A   Scattered Clouds
3:35 PM 60.4 °F 20.8 °F 22% 29.73 in 5.0 mi West 27.6 mph 39.1 mph N/A   Haze
3:55 PM 60.8 °F 15.4 °F 17% 29.72 in 7.0 mi West 32.2 mph 39.1 mph N/A   Mostly Cloudy
4:15 PM 60.8 °F 19.8 °F 21% 29.72 in 5.0 mi West 28.8 mph 41.4 mph N/A   Haze
4:35 PM 60.3 °F 18.9 °F 20% 29.73 in 5.0 mi West 25.3 mph 43.7 mph N/A   Haze
4:55 PM 59.5 °F 21.4 °F 23% 29.73 in 5.0 mi West 32.2 mph 40.3 mph N/A   Haze
5:15 PM 59.9 °F 20.3 °F 22% 29.75 in 7.0 mi West 28.8 mph 34.5 mph N/A   Scattered Clouds
5:35 PM 58.5 °F 19.8 °F 22% 29.74 in 7.0 mi West 26.5 mph 36.8 mph N/A   Scattered Clouds
5:55 PM 58.3 °F 17.4 °F 20% 29.75 in 7.0 mi West 28.8 mph 36.8 mph N/A   Clear
6:15 PM 57.7 °F 19.9 °F 23% 29.74 in 7.0 mi West 29.9 mph 36.8 mph N/A   Clear
6:35 PM 57.0 °F 21.0 °F 25% 29.75 in 7.0 mi West 28.8 mph 40.3 mph N/A   Clear
6:55 PM 56.3 °F 21.0 °F 25% 29.74 in 10.0 mi West 28.8 mph 35.7 mph N/A   Clear
7:15 PM 55.4 °F 21.7 °F 27% 29.77 in 10.0 mi West 26.5 mph 38.0 mph N/A   Clear
7:35 PM 54.0 °F 20.3 °F 27% 29.77 in 10.0 mi West 18.4 mph 35.7 mph N/A   Clear
7:55 PM 53.1 °F 19.0 °F 26% 29.81 in 10.0 mi West 17.3 mph 21.9 mph N/A   Clear
8:15 PM 52.2 °F 23.9 °F 33% 29.83 in 10.0 mi NNW 12.7 mph - N/A   Clear
8:55 PM 50.9 °F 24.8 °F 36% 29.84 in 10.0 mi NW 8.1 mph - N/A   Clear
9:15 PM 50.4 °F 24.1 °F 36% 29.85 in 10.0 mi NW 9.2 mph - N/A   Clear
9:35 PM 49.1 °F 25.7 °F 40% 29.86 in 10.0 mi NW 9.2 mph - N/A   Clear
9:55 PM 49.3 °F 24.8 °F 38% 29.89 in 10.0 mi West 8.1 mph - N/A   Clear
10:15 PM 48.4 °F 25.3 °F 41% 29.86 in 10.0 mi WNW 9.2 mph - N/A   Clear
10:35 PM 47.7 °F 25.2 °F 41% 29.87 in 10.0 mi West 9.2 mph - N/A   Clear
10:55 PM 47.7 °F 26.2 °F 43% 29.88 in 10.0 mi WSW 10.4 mph - N/A   Clear
11:15 PM 47.5 °F 27.0 °F 45% 29.88 in 10.0 mi West 10.4 mph - N/A   Clear
11:35 PM 47.3 °F 27.1 °F 46% 29.90 in 10.0 mi West 10.4 mph - N/A   Clear
11:55 PM 46.8 °F 27.3 °F 47% 29.90 in 10.0 mi West 9.2 mph - N/A   Scattered Clouds